This is the latest recevied weather packets stored in our database for station/object KC8P. If no packets are shown the sender has not sent any weather packets the latest 10 day(s).
| Time | Temp. | Humidity | Pressure | Rain* | Wind** | Luminosity | Snow |
|---|---|---|---|---|---|---|---|
| 1777917016 | 22.22° C | 43% | 1002 hPa | 0 mm | - | 719 W/m² | - |
| 1777916874 | 22.22° C | 42% | 1001.6 hPa | 0 mm | - | 723 W/m² | - |
| 1777916866 | 22.78° C | 42% | 1001.6 hPa | 0 mm | - | 719 W/m² | - |
| 1777916857 | 22.78° C | 40% | 1001.6 hPa | 0 mm | - | 715 W/m² | - |
| 1777916707 | 22.78° C | 40% | 1001.6 hPa | 0 mm | - | 713 W/m² | - |
| 1777916698 | 22.78° C | 41% | 1001.6 hPa | 0 mm | - | 723 W/m² | - |
| 1777916555 | 22.78° C | 40% | 1001.6 hPa | 0 mm | - | 720 W/m² | - |
| 1777916546 | 22.78° C | 40% | 1001.6 hPa | 0 mm | - | 712 W/m² | - |
| 1777916535 | 22.78° C | 39% | 1002 hPa | 0 mm | - | 713 W/m² | - |
| 1777916389 | 22.78° C | 39% | 1001.6 hPa | 0 mm | - | 712 W/m² | - |
| 1777916380 | 22.78° C | 39% | 1001.6 hPa | 0 mm | - | 718 W/m² | - |
| 1777916238 | 22.78° C | 39% | 1002 hPa | 0 mm | - | 714 W/m² | - |
| 1777916229 | 22.78° C | 39% | 1002 hPa | 0 mm | - | 718 W/m² | - |
| 1777916071 | 22.78° C | 39% | 1001.6 hPa | 0 mm | - | 716 W/m² | - |
| 1777916006 | 22.22° C | 41% | 1002 hPa | 0 mm | - | 722 W/m² | - |
| 1777915940 | 22.22° C | 41% | 1002 hPa | 0 mm | - | 732 W/m² | - |
| 1777915873 | 22.22° C | 39% | 1002.3 hPa | 0 mm | - | 731 W/m² | - |
| 1777915808 | 22.22° C | 42% | 1002 hPa | 0 mm | - | 722 W/m² | - |
| 1777915742 | 22.22° C | 38% | 1002.3 hPa | 0 mm | - | 713 W/m² | - |
| 1777915676 | 22.22° C | 40% | 1002.3 hPa | 0 mm | - | 711 W/m² | - |
| 1777915612 | 22.78° C | 41% | 1002 hPa | 0 mm | - | 713 W/m² | - |
| 1777915546 | 22.78° C | 41% | 1002.3 hPa | 0 mm | - | 711 W/m² | - |
| 1777915484 | 22.22° C | 41% | 1002 hPa | 0 mm | - | 712 W/m² | - |
| 1777915414 | 22.22° C | 41% | 1002 hPa | 0 mm | - | 702 W/m² | - |
| 1777915349 | 22.22° C | 41% | 1002.3 hPa | 0 mm | - | 711 W/m² | - |
* Rain latest hour (hover to see other rain measurements)
** Current wind speed in m/s (hover to see current wind gust speed)